User: anonymous   Login
Location: Unspecified
(0.0000°N, 0.0000°E)
Time: 03:50:28
(UTC+00:00)
Language:

OBJECT F - Orbit

View from above orbital plane
View from above orbital plane
View from above satellite
View from above satellite

Ground track
Ground track

The orbit data is extracted from the following two-line orbital elements,

1 43937U 19003F   19052.84381685  .00000956  00000-0  42904-4 0  9992
2 43937  97.2941 114.1481 0026125 121.4819 328.6542 15.23261058  5291
Epoch (UTC): 21 February 2019 20:15:05
Eccentricity: 0.0026125
inclination: 97.2941°
perigee height: 478 km
apogee height: 514 km
right ascension of ascending node: 114.1481°
argument of perigee: 121.4819°
revolutions per day: 15.23261058
mean anomaly at epoch: 328.6542°
orbit number at epoch: 529

The dashed part of the orbit path shows where the satellite is in the earth's shadow,  

DLR